Date String (YYYY-MM-DD hh:mm:ss) UTC,Instrument flags,Ambient pressure (hPa),Sample flow (lpm),Bypass flow (lpm),Sample temperature (°C),Ambient temperature (°C),ASC tube jacket temperature (°C),LED temperature (°C),Box temperature (°C),Sample RH (%),Span deviation,Mass concentration (μg/m³),Mass concentration (μg/m³),Mass concentration (μg/m³)
DateTimeUTC,F1_M11,P_M11,Q1_M11,Q2_M11,T1_M11,T2_M11,T3_M11,T4_M11,T5_M11,U1_M11,ZSPAN_M11,X0_M11,X2_M11,X1_M11
2022-04-09 01:00:00,,0824.6,4.99,0.00,29.2,28.5,00.0,38.0,31.0,06.7,0000.0,0006.15,0002.25,0001.26
2022-04-09 01:01:00,,0824.5,4.99,0.00,29.2,28.5,00.0,38.0,31.0,06.6,0000.0,0006.45,0002.27,0001.27
2022-04-09 01:02:00,,0824.5,4.99,0.00,29.2,28.5,00.0,38.1,31.0,06.6,0000.0,0006.15,0002.32,0001.26
2022-04-09 01:03:00,,0824.5,5.00,0.00,29.2,28.5,00.0,38.1,31.0,06.7,0000.0,0005.79,0002.38,0001.25
2022-04-09 01:04:00,,0824.4,5.01,0.00,29.2,28.5,00.0,38.1,31.0,06.7,0000.0,0005.75,0002.37,0001.24
2022-04-09 01:05:00,,0824.4,5.00,0.00,29.2,28.5,00.0,38.1,31.0,06.5,0000.0,0005.94,0002.44,0001.24
2022-04-09 01:06:00,,0824.4,4.99,0.00,29.2,28.5,00.0,38.1,31.0,06.6,0000.0,0005.94,0002.44,0001.24
2022-04-09 01:07:00,,0824.4,4.99,0.00,29.2,28.5,00.0,38.1,31.0,06.6,0000.0,0006.27,0002.52,0001.25
2022-04-09 01:08:00,,0824.4,5.00,0.00,29.2,28.5,00.0,38.1,31.0,06.6,0000.0,0006.88,0002.58,0001.25
2022-04-09 01:09:00,,0824.4,4.99,0.00,29.2,28.5,00.0,38.1,31.0,06.6,0000.0,0007.10,0002.62,0001.25
2022-04-09 01:10:00,,0824.4,5.02,0.00,29.2,28.5,00.0,38.1,31.0,06.6,0000.0,0007.00,0002.60,0001.27
2022-04-09 01:11:00,,0824.4,5.00,0.00,29.2,28.5,00.0,38.1,31.0,06.6,0000.0,0006.95,0002.57,0001.26
2022-04-09 01:12:00,,0824.4,5.00,0.00,29.2,28.5,00.0,38.1,31.0,06.5,0000.0,0006.42,0002.59,0001.26
2022-04-09 01:13:00,,0824.4,5.00,0.00,29.2,28.5,00.0,38.1,31.0,06.5,0000.0,0006.00,0002.55,0001.26
2022-04-09 01:14:00,,0824.4,4.99,0.00,29.2,28.5,00.0,38.1,31.0,06.6,0000.0,0005.80,0002.54,0001.25
2022-04-09 01:15:00,,0824.4,5.00,0.00,29.2,28.5,00.0,38.1,31.0,06.6,0000.0,0005.86,0002.53,0001.24
2022-04-09 01:16:00,,0824.4,5.01,0.00,29.3,28.6,00.0,38.2,31.0,06.6,0000.0,0005.55,0002.41,0001.24
2022-04-09 01:17:00,,0824.4,4.99,0.00,29.3,28.5,00.0,38.2,31.0,06.6,0000.0,0005.61,0002.43,0001.24
2022-04-09 01:18:00,,0824.3,4.99,0.00,29.3,28.5,00.0,38.2,31.0,06.6,0000.0,0005.55,0002.47,0001.24
2022-04-09 01:19:00,,0824.3,5.01,0.00,29.3,28.5,00.0,38.2,31.0,06.6,0000.0,0005.57,0002.52,0001.24
2022-04-09 01:20:00,,0824.4,4.99,0.00,29.3,28.5,00.0,38.2,31.0,06.5,0000.0,0005.49,0002.51,0001.24
2022-04-09 01:21:00,,0824.3,4.99,0.00,29.3,28.5,00.0,38.2,31.0,06.6,0000.0,0005.55,0002.50,0001.24
2022-04-09 01:22:00,,0824.4,5.00,0.00,29.3,28.5,00.0,38.2,31.0,06.6,0000.0,0006.18,0002.55,0001.25
2022-04-09 01:23:00,,0824.3,5.01,0.00,29.3,28.5,00.0,38.2,31.0,06.6,0000.0,0007.32,0002.58,0001.26
2022-04-09 01:24:00,,0824.3,5.01,0.00,29.3,28.5,00.0,38.2,31.0,06.6,0000.0,0007.92,0002.61,0001.26
2022-04-09 01:25:00,,0824.3,5.00,0.00,29.3,28.5,00.0,38.2,31.0,06.6,0000.0,0008.22,0002.64,0001.27
2022-04-09 01:26:00,,0824.3,4.99,0.00,29.3,28.5,00.0,38.2,31.0,06.6,0000.0,0008.23,0002.64,0001.29
2022-04-09 01:27:00,,0824.3,4.99,0.00,29.3,28.5,00.0,38.2,31.0,06.7,0000.0,0008.27,0002.70,0001.29
2022-04-09 01:28:00,,0824.3,5.02,0.00,29.3,28.6,00.0,38.2,31.0,06.6,0000.0,0008.80,0002.73,0001.30
2022-04-09 01:29:00,,0824.3,4.99,0.00,29.3,28.5,00.0,38.2,31.0,06.6,0000.0,0008.87,0002.71,0001.30
2022-04-09 01:30:00,,0824.3,4.99,0.00,29.3,28.5,00.0,38.2,31.0,06.6,0000.0,0008.70,0002.67,0001.31
2022-04-09 01:31:00,,0824.4,5.01,0.00,29.3,28.5,00.0,38.2,31.0,06.6,0000.0,0008.57,0002.67,0001.32
2022-04-09 01:32:00,,0824.3,5.00,0.00,29.3,28.5,00.0,38.2,31.0,06.6,0000.0,0008.56,0002.72,0001.34
2022-04-09 01:33:00,,0824.3,5.00,0.00,29.3,28.5,00.0,38.2,31.0,06.7,0000.0,0008.75,0002.74,0001.34
2022-04-09 01:34:00,,0824.3,5.01,0.00,29.3,28.5,00.0,38.2,31.0,06.6,0000.0,0008.07,0002.71,0001.34
2022-04-09 01:35:00,,0824.3,5.01,0.00,29.3,28.5,00.0,38.2,31.0,06.7,0000.0,0007.48,0002.66,0001.34
2022-04-09 01:36:00,,0824.3,5.00,0.00,29.3,28.5,00.0,38.2,31.0,06.7,0000.0,0007.34,0002.66,0001.35
2022-04-09 01:37:00,,0824.3,4.99,0.00,29.3,28.5,00.0,38.2,31.0,06.7,0000.0,0008.04,0002.67,0001.35
2022-04-09 01:38:00,,0824.3,5.01,0.00,29.3,28.5,00.0,38.2,31.1,06.7,0000.0,0008.39,0002.77,0001.35
2022-04-09 01:39:00,,0824.3,4.98,0.00,29.3,28.5,00.0,38.2,31.0,06.6,0000.0,0008.47,0002.80,0001.34
2022-04-09 01:40:00,,0824.3,5.01,0.00,29.3,28.5,00.0,38.3,31.0,06.7,0000.0,0008.09,0002.79,0001.34
2022-04-09 01:41:00,,0824.3,5.00,0.00,29.3,28.5,00.0,38.3,31.0,06.7,0000.0,0008.08,0002.78,0001.34
2022-04-09 01:42:00,,0824.3,5.00,0.00,29.3,28.5,00.0,38.3,31.0,06.7,0000.0,0008.13,0002.82,0001.35
2022-04-09 01:43:00,,0824.3,5.00,0.00,29.3,28.5,00.0,38.2,31.0,06.7,0000.0,0008.07,0002.82,0001.35
2022-04-09 01:44:00,,0824.3,5.02,0.00,29.3,28.5,00.0,38.3,31.0,06.7,0000.0,0008.24,0002.79,0001.33
2022-04-09 01:45:00,,0824.3,5.00,0.00,29.3,28.5,00.0,38.3,31.0,06.7,0000.0,0008.37,0002.79,0001.33
2022-04-09 01:46:00,,0824.3,4.99,0.00,29.3,28.5,00.0,38.3,31.1,06.7,0000.0,0008.45,0002.80,0001.32
2022-04-09 01:47:00,,0824.3,5.00,0.00,29.3,28.6,00.0,38.3,31.1,06.7,0000.0,0008.24,0002.76,0001.31
2022-04-09 01:48:00,,0824.3,5.00,0.00,29.3,28.5,00.0,38.3,31.0,06.7,0000.0,0007.27,0002.72,0001.31
2022-04-09 01:49:00,,0824.3,5.01,0.00,29.3,28.5,00.0,38.3,31.1,06.7,0000.0,0006.90,0002.65,0001.31
2022-04-09 01:50:00,,0824.3,5.00,0.00,29.3,28.5,00.0,38.3,31.0,06.7,0000.0,0006.16,0002.60,0001.33
2022-04-09 01:51:00,,0824.3,4.99,0.00,29.3,28.5,00.0,38.3,31.0,06.7,0000.0,0006.12,0002.62,0001.34
2022-04-09 01:52:00,,0824.3,5.00,0.00,29.3,28.5,00.0,38.3,31.1,06.7,0000.0,0006.04,0002.59,0001.33
2022-04-09 01:53:00,,0824.3,5.01,0.00,29.3,28.5,00.0,38.3,31.1,06.7,0000.0,0005.96,0002.53,0001.33
2022-04-09 01:54:00,,0824.3,4.98,0.00,29.3,28.5,00.0,38.3,31.1,06.7,0000.0,0005.90,0002.52,0001.32
2022-04-09 01:55:00,,0824.3,4.99,0.00,29.3,28.5,00.0,38.3,31.1,06.7,0000.0,0005.29,0002.54,0001.32
2022-04-09 01:56:00,,0824.3,5.01,0.00,29.4,28.5,00.0,38.3,31.1,06.7,0000.0,0005.06,0002.53,0001.32
2022-04-09 01:57:00,,0824.3,4.99,0.00,29.4,28.5,00.0,38.3,31.1,06.7,0000.0,0005.21,0002.55,0001.33
2022-04-09 01:58:00,,0824.3,5.00,0.00,29.4,28.5,00.0,38.3,31.1,06.6,0000.0,0005.32,0002.58,0001.33
2022-04-09 01:59:00,,0824.2,5.00,0.00,29.3,28.5,00.0,38.3,31.1,06.7,0000.0,0005.50,0002.65,0001.34
